Regional Weather Roundup
Issued by NWS

Home | Current Version | Previous Version | Text Only | Print | Product List | Glossary Off
Versions: 1 2 3 4 5 6 7 8 9 10 11 12 13 14 15 16 17 18 19 20 21 22 23 24 25 26 27 28 29 30 31 32 33 34 35 36 37 38 39 40 41 42 43 44 45 46 47 48 49 50

000
ASUS43 KMKX 202100
RWRWI

WISCONSIN REGIONAL WEATHER ROUNDUP
NATIONAL WEATHER SERVICE MILWAUKEE/SULLIVAN WI
300 PM CST TUE FEB 20 2018

NOTE: "FAIR" INDICATES FEW OR NO CLOUDS BELOW 12,000 FEET WITH NO
SIGNIFICANT WEATHER AND/OR OBSTRUCTIONS TO VISIBILITY.

WIZ001-002-006>008-014>016-023>028-202200-
NORTHWEST WISCONSIN

CITY           SKY/WX    TMP DP  RH WIND       PRES   REMARKS
SUPERIOR ARPT  CLOUDY    16  10  75 W6        29.96R WCI   8
ASHLAND        CLOUDY    20  17  88 W8        29.92R WCI  10
HAYWARD        CLOUDY    20  15  81 VRB3      29.90R
SIREN          CLOUDY    17  12  78 W8        29.95R WCI   7
CUMBERLAND     CLOUDY    19  14  79 W10       29.91R WCI   8
RICE LAKE      CLOUDY    21  18  86 W9        29.93R WCI  11
CHETEK         CLOUDY    22  17  83 W7G16     29.92R WCI  13
LADYSMITH      CLOUDY    24  20  85 W12       29.89R WCI  13
EAU CLAIRE     NOT AVBL
MENOMONIE      CLOUDY    23  18  78 W10       29.96R WCI  13
NEW RICHMOND   CLOUDY    19  14  78 W12       29.96R WCI   7
OSCEOLA        CLOUDY    20  13  73 W8        30.00R WCI  10
$$

WIZ003>005-009-010-017-018-202200-
NORTH CENTRAL WISCONSIN

CITY           SKY/WX    TMP DP  RH WIND       PRES   REMARKS
MANITOWISH WTR CLOUDY    23  23 100 W7        29.80R WCI  14
ARBOR VITAE    CLOUDY    26  24  92 W6        29.79R WCI  19
WOODRUFF       CLOUDY    26  24  92 W6        29.79R WCI  19
RHINELANDER    CLOUDY    27  25  92 W16       29.80R WCI  15
EAGLE RIVER    CLOUDY    26  25  96 W8        29.78R WCI  18
LAND O LAKES   CLOUDY    26  24  91 W7        29.80R WCI  19
PHILLIPS       CLOUDY    23  21  94 W6        29.83R WCI  15
TOMAHAWK       CLOUDY    26  23  89 W7        29.83R WCI  18
MEDFORD        CLOUDY    23  20  91 W13G18    29.85R WCI  11
MERRILL        CLOUDY    28  26  91 W12G18    29.85R WCI  18
$$

WIZ029-030-035-036-043>047-202200-
CENTRAL WISCONSIN

CITY           SKY/WX    TMP DP  RH WIND       PRES   REMARKS
WAUSAU         CLOUDY    27  24  89 W16       29.83R WCI  15
MOSINEE        CLOUDY    28  27  93 W13G18    29.85R WCI  18
MARSHFIELD     CLOUDY    25  22  88 W14       29.87R WCI  13
STEVENS POINT  CLOUDY    29  29 100 W8        29.85R WCI  21
WAUPACA        CLOUDY    36  33  90 W8        29.86R WCI  29
WAUTOMA        CLOUDY    34  32  92 W10       29.87S WCI  26
WISC RAPIDS    CLOUDY    30  26  85 W13G20    29.89R WCI  20
CAMP DOUGLAS   CLOUDY    30  28  93 W15       29.90R WCI  19
$$

WIZ011>013-019>022-031-037>040-048>050-202200-
NORTHEAST WISCONSIN

CITY           SKY/WX    TMP DP  RH WIND       PRES   REMARKS
ANTIGO         CLOUDY    29  28  96 W10       29.80R WCI  20
SHAWANO        CLOUDY    35  33  92 CALM      29.83R
OCONTO         CLOUDY    32  32  99 CALM      29.82S
STURGEON BAY   CLOUDY    34  32  92 W7        29.82S FOG     WCI  28
GREEN BAY      CLOUDY    35  31  85 W10       29.84R WCI  27
MANITOWOC      LGT RAIN  37  34  89 W12       29.84R WCI  29
APPLETON       CLOUDY    34  34 100 W12G18    29.85R WCI  25
CLINTONVILLE   CLOUDY    34  32  92 SW6       29.83R WCI  29
OSHKOSH        CLOUDY    35  32  88 W10G17    29.85S WCI  27
$$

WIZ032>034-041-042-053>061-202200-
SOUTHWEST WISCONSIN

CITY           SKY/WX    TMP DP  RH WIND       PRES   REMARKS
LA CROSSE      CLOUDY    27  22  81 W15       29.97R WCI  15
SPARTA         CLOUDY    26  23  91 W10G17    29.94R WCI  15
VIROQUA        CLOUDY    27  27 100 W8        29.91R WCI  19
BOSCOBEL       CLOUDY    32  25  75 W13G22    29.95R WCI  22
PRAIRIE DU CHI CLOUDY    30  23  77 W18       29.96R WCI  18
PLATTEVILLE    FAIR      32  31  98 W13       29.91R WCI  22
$$

WIZ056-057-062-063-064-067-068-202200-
SOUTH CENTRAL WISCONSIN

CITY           SKY/WX    TMP DP  RH WIND       PRES   REMARKS
REEDSBURG      CLOUDY    34  32  93 W13       29.89R WCI  25
BARABOO/DELLS  CLOUDY    33  33  98 W6        29.86F WCI  28
LONE ROCK      NOT AVBL
MINERAL POINT  FAIR      32  32 100 W9        29.88S WCI  24
MADISON        CLOUDY    35  33  92 W7        29.88F WCI  29
MIDDLETON      CLOUDY    36  35  96 NW12      29.87R WCI  28
WATERTOWN      LGT RAIN  37  37 100 W6        29.86R WCI  32
MONROE         CLOUDY    32  32 100 W10G20    29.85F WCI  24
JANESVILLE     LGT RAIN  37  37 100 W8        29.87R WCI  31
$$

WIZ051-052-058>065-066-070>072-202200-
SOUTHEAST WISCONSIN

CITY           SKY/WX    TMP DP  RH WIND       PRES   REMARKS
MILWAUKEE      LGT RAIN  47  46  97 W10       29.82R
WAUKESHA       CLOUDY    39  39 100 W12G18    29.86R WCI  32
MILWAUKEE/TIMM RAIN      43  39  87 W6        29.82S
RACINE         LGT RAIN  48  47  96 W7        29.85R
BURLINGTON     RAIN      41  40  93 W5        29.84F
KENOSHA        LGT RAIN  49  47  93 W8        29.84R FOG
FOND DU LAC    CLOUDY    36  32  85 W12       29.86R WCI  28
SHEBOYGAN      LGT RAIN  38  37  97 W13       29.83R WCI  30
WEST BEND      RAIN      37  37 100 W12       29.83S WCI  30
JUNEAU         CLOUDY    35  35  99 W5        29.88R FOG     WCI  31
$$

LSZ147-162-202200-
LAKE SUPERIOR

STATION/POSITION TIME  TEMP    WIND        PRES    WAVE
                       AIR SEA DIR/SP/G            HT/PER
                 (UTC) (F)     (DEG/KT/KT) (MB)    (FT/S)
DEVILS ISLAND    2000   17     310/  8/ 10 1013.8R
SAXON HARBOR     2030   20     320/  9/ 12 1012.5R
$$

LMZ867-665-643>646-202200-
LAKE MICHIGAN

STATION/POSITION TIME  TEMP    WIND        PRES    WAVE
                       AIR SEA DIR/SP/G            HT/PER
                 (UTC) (F)     (DEG/KT/KT) (MB)    (FT/S)
NORTHPORT PIER   2040   32                 1009.5R
KEWAUNEE LAKESHO 2030   37     250/  2/ 10 1008.8F
SHEBOYGAN LAKESH 2000   42     300/  5/  6 1010.0R
PORT WASHINGTON  2040   43     280/  6/ 11 1010.2F
MILWAUKEE LAKESH 2030   46     270/ 11/ 14   N/A
KENOSHA   LAKESH 2000   53     240/  5/  9 1010.2
$$

TC  - TEMPERATURE IN CELSIUS
VSB - VISIBILITY IN STATUTE MILES
WCI - WIND CHILL INDEX
HX  - HEAT INDEX




USA.gov is the U.S. government's official web portal to all federal, state and local government web resources and services.